When you browse on this site, cookies collect data to enhance your experience and personalize the content and advertising you see.
Visit our Privacy Policy to learn more. By continuing to use the site, you agree to this use of cookies and data.
  • In Hungary
  • List of Countries
  • For 7 days
  • Water Temperature
  • Satellite Maps
  • Weather Map
  • News
  • Weather Widgets
  • user-avatar
    Login

    Hourly Weather Semarang

    Today, 10 December, Monday

    Time Temperature Precipitation Wind Pressure Humidity
    00:00 +30°C° 0.2 mm 1 mps 756 mmHg 82%
    01:00 +29°C° 0 mm 1 mps 756 mmHg 83%
    02:00 +29°C° 0 mm 1 mps 756 mmHg 83%
    03:00 +29°C° 0 mm 1 mps 756 mmHg 84%
    04:00 +29°C° 0 mm 1 mps 756 mmHg 84%
    05:00 +30°C° 0 mm 1 mps 756 mmHg 81%
    06:00 +30°C° 0 mm 1 mps 756 mmHg 78%
    07:00 +31°C° 0 mm 1 mps 757 mmHg 75%
    08:00 +32°C° 0.2 mm 1 mps 756 mmHg 69%
    09:00 +34°C° 0.2 mm 1 mps 756 mmHg 63%
    10:00 +35°C° 0.2 mm 1 mps 756 mmHg 58%
    11:00 +36°C° 0.7 mm 2 mps 756 mmHg 58%
    12:00 +36°C° 0.7 mm 2 mps 755 mmHg 57%
    13:00 +37°C° 0.7 mm 3 mps 755 mmHg 57%
    14:00 +36°C° 1.7 mm 3 mps 755 mmHg 62%
    15:00 +35°C° 1.7 mm 3 mps 755 mmHg 66%
    16:00 +34°C° 1.7 mm 3 mps 754 mmHg 71%
    17:00 +32°C° 0.7 mm 2 mps 755 mmHg 74%
    18:00 +31°C° 0.7 mm 2 mps 755 mmHg 78%
    19:00 +30°C° 0.7 mm 1 mps 755 mmHg 81%
    20:00 +30°C° 0.6 mm 1 mps 756 mmHg 82%
    21:00 +30°C° 0.6 mm 1 mps 756 mmHg 84%
    22:00 +30°C° 0.6 mm 1 mps 757 mmHg 85%
    23:00 +30°C° 0.1 mm 1 mps 757 mmHg 85%

    Tomorrow, 11 December, Tuesday

    Time Temperature Precipitation Wind Pressure Humidity
    00:00 +29°C° 0.1 mm 1 mps 756 mmHg 86%
    01:00 +29°C° 0.1 mm 1 mps 756 mmHg 86%
    02:00 +29°C° 0.2 mm 1 mps 756 mmHg 86%
    03:00 +29°C° 0.2 mm 1 mps 756 mmHg 87%
    04:00 +29°C° 0.2 mm 1 mps 756 mmHg 87%
    05:00 +29°C° 0 mm 1 mps 756 mmHg 84%
    06:00 +30°C° 0 mm 1 mps 756 mmHg 81%
    07:00 +31°C° 0 mm 1 mps 757 mmHg 79%
    08:00 +32°C° 0 mm 1 mps 757 mmHg 72%
    09:00 +33°C° 0 mm 1 mps 757 mmHg 65%
    10:00 +35°C° 0 mm 1 mps 756 mmHg 58%
    11:00 +36°C° 0.2 mm 2 mps 756 mmHg 57%
    12:00 +37°C° 0.2 mm 2 mps 755 mmHg 57%
    13:00 +37°C° 0.2 mm 3 mps 755 mmHg 57%
    14:00 +36°C° 0.5 mm 3 mps 755 mmHg 60%
    15:00 +35°C° 0.5 mm 3 mps 754 mmHg 64%
    16:00 +35°C° 0.5 mm 3 mps 754 mmHg 67%
    17:00 +34°C° 0.7 mm 3 mps 755 mmHg 73%
    18:00 +31°C° 0.7 mm 2 mps 755 mmHg 78%
    19:00 +30°C° 0.7 mm 2 mps 756 mmHg 83%
    20:00 +30°C° 0.4 mm 2 mps 756 mmHg 83%
    21:00 +30°C° 0.4 mm 2 mps 757 mmHg 84%
    22:00 +30°C° 0.4 mm 2 mps 757 mmHg 84%
    23:00 +29°C° 0.5 mm 1 mps 757 mmHg 84%

    Day after tomorrow, 12 December, Wednesday

    Time Temperature Precipitation Wind Pressure Humidity
    00:00 +29°C° 0.5 mm 1 mps 756 mmHg 85%
    01:00 +29°C° 0.5 mm 1 mps 756 mmHg 85%
    02:00 +29°C° 0.2 mm 1 mps 756 mmHg 86%
    03:00 +28°C° 0.2 mm 1 mps 756 mmHg 86%
    04:00 +28°C° 0.2 mm 1 mps 755 mmHg 87%
    05:00 +29°C° 0.2 mm 1 mps 756 mmHg 84%
    06:00 +29°C° 0.2 mm 1 mps 756 mmHg 81%
    07:00 +30°C° 0.2 mm 1 mps 757 mmHg 79%
    08:00 +31°C° 0 mm 1 mps 757 mmHg 71%
    09:00 +33°C° 0 mm 1 mps 757 mmHg 64%
    10:00 +35°C° 0 mm 1 mps 757 mmHg 56%
    11:00 +36°C° 0 mm 2 mps 756 mmHg 55%
    12:00 +37°C° 0 mm 2 mps 756 mmHg 53%
    13:00 +37°C° 0 mm 3 mps 755 mmHg 51%
    14:00 +36°C° 0.1 mm 3 mps 755 mmHg 57%
    15:00 +35°C° 0.1 mm 3 mps 754 mmHg 62%
    16:00 +34°C° 0.1 mm 3 mps 754 mmHg 67%
    17:00 +33°C° 0.2 mm 3 mps 754 mmHg 72%
    18:00 +31°C° 0.2 mm 3 mps 755 mmHg 76%
    19:00 +30°C° 0.2 mm 2 mps 756 mmHg 81%
    20:00 +30°C° 0.6 mm 2 mps 756 mmHg 82%
    21:00 +30°C° 0.6 mm 2 mps 757 mmHg 83%
    22:00 +29°C° 0.6 mm 1 mps 757 mmHg 83%
    23:00 +29°C° 0.5 mm 1 mps 757 mmHg 84%

    13 December, Thursday

    Time Temperature Precipitation Wind Pressure Humidity
    00:00 +29°C° 0.5 mm 1 mps 756 mmHg 84%
    01:00 +29°C° 0.5 mm 1 mps 756 mmHg 84%
    02:00 +29°C° 0.2 mm 1 mps 756 mmHg 85%
    03:00 +28°C° 0.2 mm 2 mps 756 mmHg 85%
    04:00 +28°C° 0.2 mm 2 mps 756 mmHg 86%
    05:00 +29°C° 0 mm 2 mps 756 mmHg 83%
    06:00 +29°C° 0 mm 2 mps 757 mmHg 80%
    07:00 +30°C° 0 mm 2 mps 757 mmHg 77%
    08:00 +32°C° 0.1 mm 2 mps 757 mmHg 71%
    09:00 +33°C° 0.1 mm 1 mps 757 mmHg 64%
    10:00 +34°C° 0.1 mm 1 mps 757 mmHg 58%
    11:00 +36°C° 0.9 mm 2 mps 757 mmHg 57%
    12:00 +36°C° 0.9 mm 2 mps 756 mmHg 56%
    13:00 +36°C° 0.9 mm 3 mps 755 mmHg 56%
    14:00 +35°C° 1 mm 3 mps 755 mmHg 60%
    15:00 +34°C° 1 mm 3 mps 755 mmHg 64%
    16:00 +33°C° 1 mm 3 mps 755 mmHg 68%
    17:00 +32°C° 0.6 mm 2 mps 755 mmHg 71%
    18:00 +31°C° 0.6 mm 2 mps 756 mmHg 75%
    19:00 +30°C° 0.6 mm 1 mps 757 mmHg 78%
    20:00 +30°C° 0.6 mm 1 mps 757 mmHg 78%
    21:00 +30°C° 0.6 mm 1 mps 757 mmHg 79%
    22:00 +29°C° 0.6 mm 1 mps 758 mmHg 79%
    23:00 +29°C° 0.5 mm 1 mps 757 mmHg 80%

    14 December, Friday

    Time Temperature Precipitation Wind Pressure Humidity
    00:00 +29°C° 0.5 mm 1 mps 757 mmHg 80%
    01:00 +29°C° 0.5 mm 1 mps 757 mmHg 80%
    02:00 +29°C° 0.3 mm 1 mps 756 mmHg 80%
    03:00 +29°C° 0.3 mm 1 mps 756 mmHg 81%
    04:00 +29°C° 0.3 mm 1 mps 756 mmHg 81%
    05:00 +29°C° 0 mm 1 mps 757 mmHg 79%
    06:00 +30°C° 0 mm 1 mps 757 mmHg 78%
    07:00 +30°C° 0 mm 1 mps 758 mmHg 76%
    08:00 +31°C° 0 mm 1 mps 758 mmHg 71%
    09:00 +32°C° 0 mm 1 mps 758 mmHg 66%
    10:00 +34°C° 0 mm 1 mps 758 mmHg 61%
    11:00 +35°C° 0.5 mm 2 mps 757 mmHg 59%
    12:00 +35°C° 0.5 mm 2 mps 756 mmHg 58%
    13:00 +36°C° 0.5 mm 2 mps 755 mmHg 56%
    14:00 +35°C° 0.7 mm 2 mps 755 mmHg 59%
    15:00 +35°C° 0.7 mm 3 mps 755 mmHg 62%
    16:00 +34°C° 0.7 mm 3 mps 755 mmHg 65%
    17:00 +33°C° 0.6 mm 3 mps 755 mmHg 69%
    18:00 +31°C° 0.6 mm 2 mps 756 mmHg 73%
    19:00 +30°C° 0.6 mm 2 mps 756 mmHg 77%
    20:00 +30°C° 0.8 mm 2 mps 757 mmHg 79%
    21:00 +30°C° 0.8 mm 2 mps 757 mmHg 80%
    22:00 +29°C° 0.8 mm 2 mps 757 mmHg 82%
    23:00 +29°C° 0.4 mm 2 mps 757 mmHg 82%

    15 December, Saturday

    Time Temperature Precipitation Wind Pressure Humidity
    00:00 +29°C° 0.4 mm 2 mps 757 mmHg 83%
    01:00 +29°C° 0.4 mm 2 mps 756 mmHg 83%
    02:00 +29°C° 0.5 mm 2 mps 756 mmHg 84%
    03:00 +29°C° 0.5 mm 2 mps 756 mmHg 84%
    04:00 +29°C° 0.5 mm 2 mps 756 mmHg 84%
    05:00 +29°C° 0.1 mm 2 mps 756 mmHg 82%
    06:00 +30°C° 0.1 mm 2 mps 757 mmHg 79%
    07:00 +31°C° 0.1 mm 2 mps 757 mmHg 76%
    08:00 +32°C° 0.4 mm 2 mps 757 mmHg 70%
    09:00 +34°C° 0.4 mm 2 mps 757 mmHg 64%
    10:00 +36°C° 0.4 mm 2 mps 757 mmHg 59%
    11:00 +36°C° 0.5 mm 2 mps 757 mmHg 59%
    12:00 +36°C° 0.5 mm 2 mps 756 mmHg 59%
    13:00 +36°C° 0.5 mm 3 mps 755 mmHg 59%
    14:00 +35°C° 1.6 mm 2 mps 755 mmHg 63%
    15:00 +34°C° 1.6 mm 2 mps 755 mmHg 66%
    16:00 +34°C° 1.6 mm 2 mps 755 mmHg 70%
    17:00 +32°C° 1.1 mm 2 mps 755 mmHg 74%
    18:00 +31°C° 1.1 mm 2 mps 756 mmHg 78%
    19:00 +30°C° 1.1 mm 1 mps 757 mmHg 82%
    20:00 +30°C° 0.5 mm 1 mps 757 mmHg 83%
    21:00 +29°C° 0.5 mm 1 mps 757 mmHg 83%
    22:00 +29°C° 0.5 mm 1 mps 758 mmHg 84%
    23:00 +29°C° 0.1 mm 1 mps 757 mmHg 84%
    Show more